Airfield :
LOGIN :

Register | Disclaimer

   EN    FR    IT 

 










Legend :    VFR   Marginal VFR   IFR   Intensive IFR   Very Intensive IFR
Visi :
Ceiling :
>= 8 km
>= 3000ft
5 to 8 km
1000 to 3000 ft
1500m to 5 km
500 to 1000 ft
800 to 1500m
200 to 500 ft
< 800m
< 200 ft
Symbols :   Thunderstorms  Fog  Heavy snow  Heavy precipitations  Wind > 20 kt
SIGMETs :     Misc.  Thunderstorms  Icing  Turbulence  Mountain Waves  Volcanic Ashes







- Airport Elevation : 26 ft
- IATA code : BIA
- Download approach charts


LFKB - Bastia

CURRENT METAR :
  • 182100Z 23005KT CAVOK 09/04 Q1017 NOSIG

EXPIRED METARs :
  • 182030Z 25007KT CAVOK 10/04 Q1017 NOSIG
  • 182000Z 24005KT CAVOK 09/04 Q1017 NOSIG
  • 181930Z 25005KT CAVOK 09/05 Q1017 NOSIG
  • 181900Z 24005KT CAVOK 08/05 Q1017 NOSIG
  • 181830Z 25003KT CAVOK 09/05 Q1017 NOSIG

TAF TAF LFKB
Valid from the 18 at 21:00 until the 19 at 21:00 UTC


182000Z 1821/1921 24006KT 9999 FEW030 TX18/1911Z TN08/1900Z
ATIS : +33 4 95 59 19 40
No reported NOTAMs for that airfield.



MET'MAP, your aeronautical weather chart ! - Copyright ORBIFLY December 2007 - Disclaimer

ORBIFLY MET'MAP TEAM :

Programming & Development : Alexandra Zaïnal
Concept & Development : Baudouin d'Aumeries
Co-Development & Prog : Marc-Olivier Méhu
Technical & hardware support : Manuel Goepfert

Contact : metmap@orbifly.com




SOURCES & CREDITS :

   NOAA